Regional Weather Roundup
Issued by NWS

Home | Current Version | Previous Version | Text Only | Print | Product List | Glossary Off
Versions: 1 2 3 4 5 6 7 8 9 10 11 12 13 14 15 16 17 18 19 20 21 22 23 24 25 26 27 28 29 30 31 32 33 34 35 36 37 38 39 40 41 42 43 44 45 46 47 48 49 50

000
ASUS45 KSLC 111610
RWRUT

UTAH REGIONAL WEATHER ROUNDUP
NATIONAL WEATHER SERVICE SALT LAKE CITY UT
900 AM MST THU FEB 11 2016

UTZ001>011-023>025-111700-

NORTHERN UTAH

CITY           SKY/WX    TMP DP  RH WIND       PRES   REMARKS
BRIGHAM CITY   CLOUDY    25  23  93 NE3       30.49R
HILL AFB       NOT AVBL
LOGAN          FOG       22  22 100 CALM      30.47R VSB 1/4
OGDEN          CLOUDY    24  21  88 CALM      30.46R FOG
PROVO AIRPORT  FOG       19  18  93 CALM      30.49S VSB 1/16
SALT LAKE CITY FOG       29  27  92 E6        30.46F VSB 1/2 WCI  23
VERNAL         CLOUDY    14  12  92 E3        30.45R FOG
WENDOVER       CLOUDY    28  25  86 CALM      30.47F
HEBER CITY     MOSUNNY   12  10  92 CALM      30.45F FOG
WEST JORDAN    CLOUDY    27  27 100 S3        30.45F VSB 1

$$

UTZ012>022-026-027-111700-

SOUTHERN/CENTRAL UTAH

CITY           SKY/WX    TMP DP  RH WIND       PRES   REMARKS
BLANDING       MOSUNNY   32  23  70 CALM      30.48S
BRYCE CANYON   MOSUNNY   19   7  59 W10       30.45S WCI   7
CEDAR CITY     MOSUNNY   24  23  96 CALM      30.40R
DELTA          CLOUDY    11   9  92 S3        30.49R VSB 3/4
HANKSVILLE     PTSUNNY   28  28 100 CALM      30.48R
MILFORD        LGT SNOW  10   6  84 NE5       30.47R FOG     WCI   2
MOAB/CYNLANDS  MOSUNNY   28  26  92 CALM      30.44R
PRICE          MOSUNNY   34  20  56 CALM      30.42R
ST GEORGE      MOSUNNY   37  25  60 S3        30.39S
KANAB          SUNNY     43  28  56 CALM      30.42R

$$

REGIONAL REPORTS     COLORADO/ARIZONA

CITY           SKY/WX    TMP DP  RH WIND       PRES   REMARKS
CRAIG, CO      CLOUDY     4   4 100 CALM      30.43R
GRAND JUNCTION CLOUDY    29  22  75 CALM      30.45R
RIFLE          CLOUDY    18  10  71 NE5       30.48R WCI  11
MONTROSE       CLOUDY    28  16  60 S7        30.47R WCI  21
CORTEZ         CLOUDY    29  16  58 E3        30.42R
PAGE, AZ       SUNNY     39  29  67 CALM      30.42R
GRAND CANYON   MOSUNNY   34  23  64 CALM      30.42R
KINGMAN        SUNNY     50  32  50 E6        30.28R
FLAGSTAFF      MOSUNNY   33  20  58 CALM      30.42R

$$

REGIONAL REPORTS    NEVADA/IDAHO/WYOMING

CITY           SKY/WX    TMP DP  RH WIND       PRES   REMARKS
LAS VEGAS, NV  MOSUNNY   51  26  37 SW5       30.25R
ELY            PTSUNNY   16   7  67 S15       30.42S WCI   1
ELKO           CLOUDY    14   9  80 CALM      30.43S
POCATELLO, ID  CLOUDY    22  19  89 E7        30.42R WCI  13
BURLEY         SUNNY     27  24  89 CALM      30.36R
EVANSTON, WY   CLOUDY    26  11  52 SW15      30.38S WCI  14
ROCK SPRINGS   CLOUDY    33  16  49 SW9       30.36R WCI  25

$$



USA.gov is the U.S. government's official web portal to all federal, state and local government web resources and services.